Dauntless Aviation
Greetings, Guest! To participate, [sign up for a free account] or [log in]
Airports Europe France
LFIY

Saint Jean d'Angely

FRANCE

Airport Info
Edit

Location

Latitude / Longitude: 45°57'59"N / 0°31'31"W
  45°57.984'N / 0°31.518'W
  45.9664 / -0.5253

Runway Information

Runway 10 /28

Dimensions: 2789 x 164 ft.
Surface: U
 
Runway 10
Runway 28
Latitude: 45.966636 45.965728
Longitude: -0.528086 -0.518369
Elevation: 243 ft. 243 ft.
Runway true heading: 95.7 275.7
 

Instrument Procedures

IAPs (Instrument Approach Procedures)

  Visual Approch Chart
Satellite photo at:
Airport distance calculator
From:
Weather Reports

METAR

LFBG
20.0nm SE
LFBG 231700Z AUTO 04004KT 9999 NSC 14/07 Q1024
LFBH
27.2nm W
LFBH 231700Z AUTO 27002KT 9999 NSC 15/09 Q1024
LFBU
34.5nm E
LFBU 231700Z AUTO 36004KT 9999 NSC 13/07 Q1024

TAF

LFBG
20.0nm SE
TAF LFBG 231100Z 2312/2412 06003KT 9999 SCT030 TEMPO 2405/2407 5000 MIFG BECMG 2410/2412 14009KT
LFBH
27.2nm W
TAF LFBH 231100Z 2312/2412 14008KT 9999 SCT030 TEMPO 2315/2320 26006KT BECMG 2318/2321 CAVOK
Safelog

 

Dauntless Aviation

© 2007-2014 Dauntless Aviation, all rights reserved
Information provided via PilotNav comes from a variety of official and unofficial data sources. As errors are possible, do not use PilotNav for primary flight planning purposes. Verify any information that you receive via PilotNav with current and canonical charts and other official documents. The material in this database is subject to database copyrights held by Dauntless Aviation and may not be copied without the express permission of Dauntless Aviation - licenses for use of part of all of this data are available for purchase; enquire via the Dauntless Aviation helpdesk. A number of mechanisms and markers exist in the database to protect against and identify infringement / copyright. Automated queries against this website are stictly prohibited, and all activity is logged and analyzed.